SCP
0 0 0 0 0 0 0 0 0 0 0 0 1 1 0 0 0 0 0 0 0 0 0 0 0 0 0 0 0 0 0 0 0 0 0 0 0 0 0 0 0 0 0
0 0 0 0 0 0 0 0 0 0 0 0 0 0 0 0 0 0 0 0 0 0 0 0 0 0 0 0 0 0 0 0 0 0 0 0 0 0 0 0 0 0 0
0 0 0 0 0 0 0 0 0 0 0 0 0 0 0 0 0 0 0 0 0 0 0 0 0 0 0 0 0 0 0 0 0 0 0 0 -0 -0 -0 0 0 0 0
0 0 0 0 0 0 0 0 0 0 0 0 0 0 0 0 0 0 0 0 0 0 0 0 0 0 0 0 0 0 0 0 0 0 0 -0 -0 -0 -0 -0 0 0 0
0 0 0 0 0 0 0 0 0 0 0 0 0 0 0 0 0 0 0 0 0 0 0 0 0 0 0 0 0 0 0 0 0 0 0 0 0 0 0 0 0 0 -0
0 0 0 0 0 0 0 0 0 0 0 0 0 0 0 0 0 0 0 0 0 0 0 0 0 0 0 0 0 0 0 0 0 0 0 0 0 0 0 0 0 0 0
0 0 0 0 0 0 0 0 0 0 0 0 0 0 0 0 0 0 0 0 0 0 0 0 0 0 0 0 0 0 0 0 0 0 0 0 0 0 0 0 0 0 0
0 0 0 0 0 0 0 0 0 0 0 0 0 0 0 0 0 0 0 0 0 0 0 0 0 0 0 0 0 0 0 0 0 0 0 0 0 0 0 0 0 0 0
0 0 0 0 0 0 0 0 0 0 0 0 0 0 0 0 0 0 0 0 0 0 0 0 0 0 0 0 0 0 0 0 0 0 0 0 0 0 0 0 0 0 0
0 0 0 0 0 0 0 0 0 0 0 0 0 0 0 0 0 0 0 0 0 0 0 0 0 0 0 0 0 0 0 0 0 0 0 0 0 0 0 0 0 0 0
0 0 0 0 -0 -0 0 0 0 0 0 0 0 0 0 0 0 0 0 0 0 0 0 0 0 0 0 0 0 0 0 0 0 0 0 0 0 0 0 0 0 0 0
0 0 -0 -0 0 0 0 0 0 0 0 0 0 0 0 0 0 0 0 0 0 0 0 0 0 0 0 0 0 0 0 0 0 0 0 0 0 0 0 0 0 0 0
0 0 0 0 0 0 0 0 0 0 0 0 0 0 0 0 0 0 0 0 0 0 0 0 0 0 0 0 0 0 0 0 0 0 0 0 0 0 0 0 0 0 0
-0 -0 -0 -0 -0 0 0 0 0 0 0 0 0 0 0 0 0 0 0 0 0 0 0 0 0 0 0 0 0 0 0 0 0 0 0 0 0 0 0 0 0 0 0
-0 0 0 0 0 0 0 0 0 0 0 0 0 0 0 0 0 0 0 0 0 0 0 0 0 0 0 0 0 0 0 0 0 0 0 0 0 0 0 0 0 0 0
0 0 0 0 0 0 0 0 0 0 0 0 0 0 0 0 0 0 0 0 0 0 0 0 0 0 0 -0 0 -0 0 0 0 0 0 0 0 0 0 0 0 0 0
0 0 0 0 0 0 0 0 0 0 0 0 0 0 0 0 0 0 0 0 0 0 0 -0 -0 -0 -0 -0 -0 -0 -0 -0 -0 0 -0 -0 0 0 0 0 0 0 0
0 0 0 0 0 0 0 0 0 0 0 0 0 0 0 0 0 0 0 0 -0 -0 -0 -0 -0 -0 -0 -0 -0 -0 0 0 0 -0 0 0 0 0 0 0 0 -0 -0
0 0 0 0 0 0 0 -0 0 0 0 0 0 0 0 0 0 0 0 0 0 0 0 0 0 0 0 -0 0 0 0 0 -0 0 0 -0 0 0 0 -0 -0 -0 -0
0 0 0 0 0 -0 -0 0 0 0 0 0 0 0 0 0 0 0 0 0 0 0 0 0 0 0 0 -0 -0 0 0 0 0 0 0 -0 -0 -0 0 0 0 -0 -0
0 -0 -0 -0 -0 0 0 0 0 0 0 0 0 0 0 0 0 0 0 0 0 0 0 0 0 0 0 0 0 0 0 0 -0 -0 -0 -0 -0 -0 0 -0 0 0 0
0 0 -0 -0 0 0 0 0 0 0 0 0 0 0 0 0 0 0 0 0 0 0 0 0 0 0 -0 -0 -0 -0 -0 -0 -0 -0 -0 -0 0 -0 -0 -0 -0 -0 0
0 0 0 0 0 0 0 0 0 0 0 0 0 0 0 0 0 0 -0 -0 -0 -0 -0 -0 -0 -0 0 0 -0 -0 -0 0 0 0 0 0 0 0 0 -0 -0 0 0
0 0 0 0 0 0 0 0 0 0 0 0 0 0 -0 -0 0 0 0 0 0 0 0 0 0 0 0 0 -0 -0 0 0 0 0 0 0 0 0 0 0 0 0 0
0 0 0 0 0 0 0 0 0 0 0 0 0 0 0 0 0 0 0 0 0 0 0 0 0 0 -0 -0 -0 -0 -0 0 0 0 -0 -0 -0 -0 -0 -0 0 -0 -0
0 0 0 0 0 0 0 0 0 0 0 0 0 0 0 0 0 0 0 0 0 -0 -0 -0 -0 0 -0 0 0 0 0 0 -0 0 0 0 -0 -0 -0 -0 0 0 0
Wind_Speed_500mb
43 43 43 40 36 33 25 17 10 8 7 12 13 16 18 20 21 17 18 20 22 23 18 20 21 21 22 20 18 18 21 24 26 30 35 38 36 34 27 42 42 43 47
53 50 46 42 42 40 33 22 13 8 4 5 3 10 14 19 23 24 22 25 26 27 30 29 25 23 23 23 23 20 21 26 32 36 38 30 44 30 56 41 57 51 56
63 61 60 57 50 46 36 25 19 15 15 15 13 11 6 9 15 20 23 22 21 24 30 36 36 32 35 35 24 21 31 37 40 43 35 18 22 50 46 53 42 60 59
65 61 56 53 50 43 34 31 27 24 24 22 18 12 8 6 13 19 20 22 26 27 31 34 41 43 43 43 38 35 58 72 70 59 44 37 34 20 26 29 60 56 62
57 58 58 53 48 42 38 32 25 21 17 13 12 12 13 9 10 17 24 26 30 34 36 41 37 37 37 43 48 46 51 52 55 53 47 36 36 34 31 45 62 77 69
56 54 49 41 40 33 28 23 21 18 12 7 2 4 3 7 11 16 21 25 30 34 42 42 40 41 47 48 42 40 42 44 40 37 34 32 38 47 46 56 64 70 71
46 44 44 43 41 40 39 35 30 25 23 22 20 18 14 20 28 27 27 29 33 37 41 45 50 50 49 49 49 45 45 45 41 37 36 37 39 42 48 53 61 62 64
42 43 47 52 54 52 49 49 48 47 44 43 43 39 33 33 33 34 39 43 43 42 44 50 54 56 56 54 54 54 51 46 42 40 38 41 41 42 45 49 51 63 63
43 48 54 59 60 58 57 57 59 59 58 60 60 57 55 53 53 51 47 47 47 51 53 53 54 53 54 54 52 50 45 38 39 41 42 43 48 47 50 48 49 50 58
44 51 60 64 62 61 62 62 63 67 69 69 70 69 67 67 66 64 63 59 57 53 53 54 56 57 60 58 51 48 45 50 46 40 41 43 47 51 53 51 49 51 52
46 56 61 58 58 59 62 64 65 68 69 69 71 71 72 72 71 68 63 59 64 56 50 48 49 51 54 55 54 56 53 42 41 36 39 51 51 58 59 50 47 48 47
48 58 56 58 58 58 59 61 64 67 70 63 65 69 69 60 58 58 54 50 54 62 61 55 51 55 50 51 55 53 56 41 38 42 53 58 61 60 51 44 43 44 43
58 57 58 59 56 59 55 63 60 59 57 55 53 54 54 56 56 48 45 47 46 47 46 61 56 45 44 44 46 46 39 36 34 43 52 63 62 55 40 37 36 36 27
51 52 54 54 44 49 63 62 62 61 59 56 53 51 50 49 45 40 35 32 33 41 39 36 38 45 36 38 36 29 32 46 58 58 49 57 47 37 30 21 16 8 5
53 55 59 48 54 64 61 63 62 59 55 52 49 45 45 37 33 29 25 25 22 30 17 15 11 22 25 31 36 30 35 43 47 41 41 33 30 19 15 9 4 7 8
56 57 60 60 60 59 57 57 60 56 54 49 41 36 36 30 26 25 21 16 22 26 23 16 16 22 26 34 36 39 44 39 32 30 28 19 6 1 2 2 9 6 9
50 53 56 55 51 52 51 54 54 50 46 40 30 29 29 29 26 26 23 22 24 23 22 22 23 24 29 35 36 29 25 26 27 23 19 11 14 22 18 18 15 16 19
50 52 49 48 49 44 46 46 46 46 42 36 31 24 27 23 24 24 22 21 20 16 18 23 24 20 26 22 20 21 19 18 9 28 23 23 18 20 22 20 18 17 15
45 40 38 38 42 43 41 42 40 41 38 38 36 31 29 24 23 23 24 24 21 16 18 17 18 19 21 22 18 15 17 42 40 30 31 29 17 12 9 9 9 9 10
33 34 34 34 35 34 34 35 37 37 39 40 38 38 33 26 27 28 28 25 26 27 30 33 37 40 45 52 49 33 44 44 40 27 26 19 14 14 12 13 13 8 5
29 28 30 31 31 30 28 30 33 35 34 34 31 30 30 30 28 30 33 31 37 39 42 46 46 42 38 37 33 29 26 34 39 27 20 22 23 22 21 20 20 21 12
24 25 29 28 28 28 26 26 28 31 29 26 27 29 31 31 32 34 38 35 34 34 36 37 49 53 52 47 46 45 39 29 26 22 22 23 23 23 22 19 20 20 16
21 24 25 27 30 28 27 28 27 25 26 28 30 30 32 39 46 43 40 53 57 53 48 45 45 43 38 32 29 29 28 25 23 22 22 23 29 28 24 21 20 19 23
21 23 24 30 34 33 28 29 29 27 27 33 37 38 46 51 65 60 52 44 44 45 43 42 39 36 35 39 34 29 27 27 23 20 24 32 34 35 35 32 32 24 21
19 21 36 41 45 47 49 45 42 43 48 55 61 61 58 54 48 45 45 45 45 45 43 43 44 43 43 42 37 33 32 30 26 22 28 38 44 50 43 31 24 24 28
21 35 36 39 42 43 42 41 43 50 55 52 46 47 46 44 42 42 46 48 49 47 45 43 41 40 40 33 34 35 31 32 29 30 36 41 46 54 52 40 38 36 37
Wind_Direction_500mb
94 95 91 92 97 99 113 122 152 175 193 221 226 223 236 235 242 253 269 263 271 264 256 264 248 228 230 249 261 276 283 290 302 307 298 309 316 316 319 323 320 324 334
81 79 81 82 81 82 80 79 86 77 32 24 282 251 239 235 244 262 270 268 263 254 257 256 241 238 247 259 281 296 316 329 334 340 338 331 322 313 317 321 321 324 330
79 74 71 72 77 77 80 81 76 61 42 31 33 36 21 313 272 267 270 269 260 258 264 258 243 243 258 270 270 303 332 334 334 332 327 321 301 316 315 319 317 318 323
84 83 78 73 72 74 78 76 72 71 64 55 43 10 351 319 294 281 273 271 269 266 272 276 277 280 276 271 276 273 282 300 294 298 307 315 311 311 309 309 317 317 323
79 77 73 71 69 70 71 75 80 79 70 54 48 41 31 7 301 289 291 292 281 277 274 276 274 272 270 276 280 281 280 284 286 289 296 300 308 311 294 303 313 313 318
76 71 67 67 61 58 57 54 53 54 58 47 19 293 313 297 284 287 290 286 278 269 272 272 272 272 276 275 274 276 281 279 282 281 280 291 300 305 302 299 303 305 310
60 51 43 30 20 14 8 1 356 351 345 338 331 320 305 288 276 270 265 264 269 277 281 278 275 274 269 269 272 272 276 279 276 277 286 299 306 301 295 293 295 301 302
39 28 15 7 0 354 346 339 331 327 321 315 311 308 299 290 286 283 274 269 266 262 261 262 266 267 267 268 269 272 275 276 281 287 291 296 305 305 303 292 293 296 295
17 8 359 353 347 342 337 333 326 322 319 315 310 305 300 292 286 280 277 276 272 268 261 260 261 260 264 266 268 270 270 267 284 282 286 293 299 301 301 294 287 288 291
1 355 350 344 340 336 332 328 324 320 315 310 306 304 300 295 290 285 277 272 271 267 264 259 258 259 258 258 255 258 265 279 281 282 290 295 302 304 300 294 290 285 284
350 346 342 341 339 335 332 328 324 320 317 314 308 304 300 298 295 291 289 284 272 270 266 261 262 264 267 266 267 264 276 275 273 278 291 297 304 305 301 292 290 286 282
343 343 344 344 343 339 336 334 333 331 326 322 316 315 313 308 298 295 290 285 280 271 267 263 261 263 268 274 276 279 275 266 274 284 286 302 307 305 297 293 290 286 287
342 344 345 343 342 343 340 335 332 330 335 331 329 324 322 319 313 299 295 288 289 287 285 267 265 271 274 274 276 273 263 273 299 303 307 306 308 304 294 292 291 289 286
344 343 343 344 341 338 338 339 341 337 333 331 328 328 328 322 318 319 301 308 297 309 294 289 277 261 275 273 263 277 296 301 293 293 294 297 300 292 289 291 297 306 312
344 345 346 341 341 342 346 344 342 340 337 331 328 330 333 335 334 333 323 319 316 329 322 306 291 270 274 286 299 296 291 292 291 298 292 289 276 286 295 295 27 56 72
343 345 346 341 344 347 346 346 345 344 340 337 330 333 336 338 342 346 337 332 340 319 319 316 304 292 289 287 290 299 296 293 293 293 291 240 285 338 357 67 101 97 79
337 339 338 342 349 350 349 349 349 349 347 350 346 345 348 354 355 358 353 346 332 326 323 317 311 302 299 301 298 292 295 295 288 283 198 186 115 80 71 68 64 71 86
336 338 341 347 348 353 353 351 357 1 4 4 2 12 1 9 4 5 358 355 357 358 354 351 336 327 328 320 307 297 296 291 178 136 106 101 104 100 80 74 71 62 57
333 336 345 347 350 354 355 3 5 11 16 16 11 5 358 0 357 357 4 15 8 351 360 2 22 29 30 24 27 32 98 112 111 99 91 87 87 64 59 81 73 41 29
337 343 348 352 357 355 4 10 13 15 8 12 29 29 32 34 22 21 35 39 51 64 72 71 68 65 71 69 69 96 125 106 91 88 86 73 53 12 346 336 328 310 316
343 350 351 358 3 359 5 14 13 12 8 7 26 26 28 33 43 54 63 65 85 87 84 78 75 69 63 63 65 74 96 87 76 56 40 48 42 29 19 12 0 347 262
355 357 360 5 8 4 8 9 8 3 9 23 31 41 48 55 60 67 76 81 76 76 78 78 77 76 72 73 79 78 69 61 66 59 51 41 23 13 5 357 352 335 335
359 4 10 18 17 19 22 26 22 22 31 45 54 61 64 74 78 75 79 86 80 77 75 73 76 72 66 65 64 60 58 57 52 58 47 28 11 14 23 18 12 38 87
11 23 37 42 45 43 38 33 30 39 54 65 69 73 78 84 90 88 84 77 71 72 74 71 66 64 64 59 57 56 55 53 57 50 30 33 44 46 47 50 51 62 47
42 66 77 72 67 64 67 60 64 68 79 85 92 83 83 84 83 76 72 69 67 68 67 66 67 63 55 51 45 46 47 42 41 41 49 45 41 35 37 41 39 23 15
94 99 85 75 66 59 60 63 64 80 93 96 83 80 78 74 73 72 71 71 70 66 61 57 53 52 49 44 36 35 40 36 33 54 51 46 37 36 42 44 41 39 30
Wind_Speed_850mb
43 43 43 40 36 33 25 17 10 8 7 12 13 16 18 20 21 17 18 20 22 23 18 20 21 21 22 20 18 18 21 24 26 30 35 38 36 34 27 42 42 43 47
53 50 46 42 42 40 33 22 13 8 4 5 3 10 14 19 23 24 22 25 26 27 30 29 25 23 23 23 23 20 21 26 32 36 38 30 44 30 56 41 57 51 56
63 61 60 57 50 46 36 25 19 15 15 15 13 11 6 9 15 20 23 22 21 24 30 36 36 32 35 35 24 21 31 37 40 43 35 18 22 50 46 53 42 60 59
65 61 56 53 50 43 34 31 27 24 24 22 18 12 8 6 13 19 20 22 26 27 31 34 41 43 43 43 38 35 58 72 70 59 44 37 34 20 26 29 60 56 62
57 58 58 53 48 42 38 32 25 21 17 13 12 12 13 9 10 17 24 26 30 34 36 41 37 37 37 43 48 46 51 52 55 53 47 36 36 34 31 45 62 77 69
56 54 49 41 40 33 28 23 21 18 12 7 2 4 3 7 11 16 21 25 30 34 42 42 40 41 47 48 42 40 42 44 40 37 34 32 38 47 46 56 64 70 71
46 44 44 43 41 40 39 35 30 25 23 22 20 18 14 20 28 27 27 29 33 37 41 45 50 50 49 49 49 45 45 45 41 37 36 37 39 42 48 53 61 62 64
42 43 47 52 54 52 49 49 48 47 44 43 43 39 33 33 33 34 39 43 43 42 44 50 54 56 56 54 54 54 51 46 42 40 38 41 41 42 45 49 51 63 63
43 48 54 59 60 58 57 57 59 59 58 60 60 57 55 53 53 51 47 47 47 51 53 53 54 53 54 54 52 50 45 38 39 41 42 43 48 47 50 48 49 50 58
44 51 60 64 62 61 62 62 63 67 69 69 70 69 67 67 66 64 63 59 57 53 53 54 56 57 60 58 51 48 45 50 46 40 41 43 47 51 53 51 49 51 52
46 56 61 58 58 59 62 64 65 68 69 69 71 71 72 72 71 68 63 59 64 56 50 48 49 51 54 55 54 56 53 42 41 36 39 51 51 58 59 50 47 48 47
48 58 56 58 58 58 59 61 64 67 70 63 65 69 69 60 58 58 54 50 54 62 61 55 51 55 50 51 55 53 56 41 38 42 53 58 61 60 51 44 43 44 43
58 57 58 59 56 59 55 63 60 59 57 55 53 54 54 56 56 48 45 47 46 47 46 61 56 45 44 44 46 46 39 36 34 43 52 63 62 55 40 37 36 36 27
51 52 54 54 44 49 63 62 62 61 59 56 53 51 50 49 45 40 35 32 33 41 39 36 38 45 36 38 36 29 32 46 58 58 49 57 47 37 30 21 16 8 5
53 55 59 48 54 64 61 63 62 59 55 52 49 45 45 37 33 29 25 25 22 30 17 15 11 22 25 31 36 30 35 43 47 41 41 33 30 19 15 9 4 7 8
56 57 60 60 60 59 57 57 60 56 54 49 41 36 36 30 26 25 21 16 22 26 23 16 16 22 26 34 36 39 44 39 32 30 28 19 6 1 2 2 9 6 9
50 53 56 55 51 52 51 54 54 50 46 40 30 29 29 29 26 26 23 22 24 23 22 22 23 24 29 35 36 29 25 26 27 23 19 11 14 22 18 18 15 16 19
50 52 49 48 49 44 46 46 46 46 42 36 31 24 27 23 24 24 22 21 20 16 18 23 24 20 26 22 20 21 19 18 9 28 23 23 18 20 22 20 18 17 15
45 40 38 38 42 43 41 42 40 41 38 38 36 31 29 24 23 23 24 24 21 16 18 17 18 19 21 22 18 15 17 42 40 30 31 29 17 12 9 9 9 9 10
33 34 34 34 35 34 34 35 37 37 39 40 38 38 33 26 27 28 28 25 26 27 30 33 37 40 45 52 49 33 44 44 40 27 26 19 14 14 12 13 13 8 5
29 28 30 31 31 30 28 30 33 35 34 34 31 30 30 30 28 30 33 31 37 39 42 46 46 42 38 37 33 29 26 34 39 27 20 22 23 22 21 20 20 21 12
24 25 29 28 28 28 26 26 28 31 29 26 27 29 31 31 32 34 38 35 34 34 36 37 49 53 52 47 46 45 39 29 26 22 22 23 23 23 22 19 20 20 16
21 24 25 27 30 28 27 28 27 25 26 28 30 30 32 39 46 43 40 53 57 53 48 45 45 43 38 32 29 29 28 25 23 22 22 23 29 28 24 21 20 19 23
21 23 24 30 34 33 28 29 29 27 27 33 37 38 46 51 65 60 52 44 44 45 43 42 39 36 35 39 34 29 27 27 23 20 24 32 34 35 35 32 32 24 21
19 21 36 41 45 47 49 45 42 43 48 55 61 61 58 54 48 45 45 45 45 45 43 43 44 43 43 42 37 33 32 30 26 22 28 38 44 50 43 31 24 24 28
21 35 36 39 42 43 42 41 43 50 55 52 46 47 46 44 42 42 46 48 49 47 45 43 41 40 40 33 34 35 31 32 29 30 36 41 46 54 52 40 38 36 37
Wind_Direction_850mb
94 95 91 92 97 99 113 122 152 175 193 221 226 223 236 235 242 253 269 263 271 264 256 264 248 228 230 249 261 276 283 290 302 307 298 309 316 316 319 323 320 324 334
81 79 81 82 81 82 80 79 86 77 32 24 282 251 239 235 244 262 270 268 263 254 257 256 241 238 247 259 281 296 316 329 334 340 338 331 322 313 317 321 321 324 330
79 74 71 72 77 77 80 81 76 61 42 31 33 36 21 313 272 267 270 269 260 258 264 258 243 243 258 270 270 303 332 334 334 332 327 321 301 316 315 319 317 318 323
84 83 78 73 72 74 78 76 72 71 64 55 43 10 351 319 294 281 273 271 269 266 272 276 277 280 276 271 276 273 282 300 294 298 307 315 311 311 309 309 317 317 323
79 77 73 71 69 70 71 75 80 79 70 54 48 41 31 7 301 289 291 292 281 277 274 276 274 272 270 276 280 281 280 284 286 289 296 300 308 311 294 303 313 313 318
76 71 67 67 61 58 57 54 53 54 58 47 19 293 313 297 284 287 290 286 278 269 272 272 272 272 276 275 274 276 281 279 282 281 280 291 300 305 302 299 303 305 310
60 51 43 30 20 14 8 1 356 351 345 338 331 320 305 288 276 270 265 264 269 277 281 278 275 274 269 269 272 272 276 279 276 277 286 299 306 301 295 293 295 301 302
39 28 15 7 0 354 346 339 331 327 321 315 311 308 299 290 286 283 274 269 266 262 261 262 266 267 267 268 269 272 275 276 281 287 291 296 305 305 303 292 293 296 295
17 8 359 353 347 342 337 333 326 322 319 315 310 305 300 292 286 280 277 276 272 268 261 260 261 260 264 266 268 270 270 267 284 282 286 293 299 301 301 294 287 288 291
1 355 350 344 340 336 332 328 324 320 315 310 306 304 300 295 290 285 277 272 271 267 264 259 258 259 258 258 255 258 265 279 281 282 290 295 302 304 300 294 290 285 284
350 346 342 341 339 335 332 328 324 320 317 314 308 304 300 298 295 291 289 284 272 270 266 261 262 264 267 266 267 264 276 275 273 278 291 297 304 305 301 292 290 286 282
343 343 344 344 343 339 336 334 333 331 326 322 316 315 313 308 298 295 290 285 280 271 267 263 261 263 268 274 276 279 275 266 274 284 286 302 307 305 297 293 290 286 287
342 344 345 343 342 343 340 335 332 330 335 331 329 324 322 319 313 299 295 288 289 287 285 267 265 271 274 274 276 273 263 273 299 303 307 306 308 304 294 292 291 289 286
344 343 343 344 341 338 338 339 341 337 333 331 328 328 328 322 318 319 301 308 297 309 294 289 277 261 275 273 263 277 296 301 293 293 294 297 300 292 289 291 297 306 312
344 345 346 341 341 342 346 344 342 340 337 331 328 330 333 335 334 333 323 319 316 329 322 306 291 270 274 286 299 296 291 292 291 298 292 289 276 286 295 295 27 56 72
343 345 346 341 344 347 346 346 345 344 340 337 330 333 336 338 342 346 337 332 340 319 319 316 304 292 289 287 290 299 296 293 293 293 291 240 285 338 357 67 101 97 79
337 339 338 342 349 350 349 349 349 349 347 350 346 345 348 354 355 358 353 346 332 326 323 317 311 302 299 301 298 292 295 295 288 283 198 186 115 80 71 68 64 71 86
336 338 341 347 348 353 353 351 357 1 4 4 2 12 1 9 4 5 358 355 357 358 354 351 336 327 328 320 307 297 296 291 178 136 106 101 104 100 80 74 71 62 57
333 336 345 347 350 354 355 3 5 11 16 16 11 5 358 0 357 357 4 15 8 351 360 2 22 29 30 24 27 32 98 112 111 99 91 87 87 64 59 81 73 41 29
337 343 348 352 357 355 4 10 13 15 8 12 29 29 32 34 22 21 35 39 51 64 72 71 68 65 71 69 69 96 125 106 91 88 86 73 53 12 346 336 328 310 316
343 350 351 358 3 359 5 14 13 12 8 7 26 26 28 33 43 54 63 65 85 87 84 78 75 69 63 63 65 74 96 87 76 56 40 48 42 29 19 12 0 347 262
355 357 360 5 8 4 8 9 8 3 9 23 31 41 48 55 60 67 76 81 76 76 78 78 77 76 72 73 79 78 69 61 66 59 51 41 23 13 5 357 352 335 335
359 4 10 18 17 19 22 26 22 22 31 45 54 61 64 74 78 75 79 86 80 77 75 73 76 72 66 65 64 60 58 57 52 58 47 28 11 14 23 18 12 38 87
11 23 37 42 45 43 38 33 30 39 54 65 69 73 78 84 90 88 84 77 71 72 74 71 66 64 64 59 57 56 55 53 57 50 30 33 44 46 47 50 51 62 47
42 66 77 72 67 64 67 60 64 68 79 85 92 83 83 84 83 76 72 69 67 68 67 66 67 63 55 51 45 46 47 42 41 41 49 45 41 35 37 41 39 23 15
94 99 85 75 66 59 60 63 64 80 93 96 83 80 78 74 73 72 71 71 70 66 61 57 53 52 49 44 36 35 40 36 33 54 51 46 37 36 42 44 41 39 30